Fort Loudoun Observed Data For Previous 48 Hours

Caption
Day and Hour Reservoir Elevation (behind dam)* Tailwater Elevation (below dam)* Average Hourly Discharge*
1/16/2019 2 AM EST 808.81 744.61 52,579
1/16/2019 3 AM EST 808.81 744.60 52,594
1/16/2019 4 AM EST 808.80 744.61 52,646
1/16/2019 5 AM EST 808.80 744.61 52,660
1/16/2019 6 AM EST 808.79 744.61 52,649
1/16/2019 7 AM EST 808.80 744.60 52,651
1/16/2019 8 AM EST 808.79 744.62 52,673
1/16/2019 9 AM EST 808.79 744.65 52,685
1/16/2019 10 AM EST 808.79 744.65 52,647
1/16/2019 11 AM EST 808.79 744.61 52,669
1/16/2019 12 PM EST 808.78 744.63 52,625
1/16/2019 1 PM EST 808.76 744.66 52,806
1/16/2019 2 PM EST 808.74 744.65 52,832
1/16/2019 3 PM EST 808.72 744.68 52,870
1/16/2019 4 PM EST 808.70 744.63 52,841
1/16/2019 5 PM EST 808.69 744.62 52,820
1/16/2019 6 PM EST 808.69 744.63 52,837
1/16/2019 7 PM EST 808.68 744.64 52,922
1/16/2019 8 PM EST 808.68 744.63 52,802
1/16/2019 9 PM EST 808.67 744.62 52,753
1/16/2019 10 PM EST 808.67 744.60 52,666
1/16/2019 11 PM EST 808.66 744.60 52,694
1/17/2019 12 AM EST 808.67 744.60 52,740
1/17/2019 1 AM EST 808.67 744.61 52,821
1/17/2019 2 AM EST 808.67 744.62 52,825
1/17/2019 3 AM EST 808.66 744.61 52,714
1/17/2019 4 AM EST 808.65 744.61 52,811
1/17/2019 5 AM EST 808.65 744.60 52,839
1/17/2019 6 AM EST 808.64 744.58 52,698
1/17/2019 7 AM EST 808.64 744.58 52,716
1/17/2019 8 AM EST 808.64 744.58 52,691
1/17/2019 9 AM EST 808.63 744.57 52,703
1/17/2019 10 AM EST 808.62 744.64 53,021
1/17/2019 11 AM EST 808.64 744.64 53,054
1/17/2019 12 PM EST 808.66 744.63 53,047
1/17/2019 1 PM EST 808.67 744.63 52,979
1/17/2019 2 PM EST 808.62 744.65 52,994
1/17/2019 3 PM EST 808.61 744.64 53,100
1/17/2019 4 PM EST 808.62 744.64 53,104
1/17/2019 5 PM EST 808.61 744.63 53,075
1/17/2019 6 PM EST 808.60 744.63 53,027
1/17/2019 7 PM EST 808.59 744.63 53,051
1/17/2019 8 PM EST 808.60 744.63 53,021
1/17/2019 9 PM EST 808.59 - 999.00 52,985
1/17/2019 10 PM EST 808.59 744.60 52,976
1/17/2019 11 PM EST 808.58 744.60 52,984
1/18/2019 12 AM EST 808.58 744.59 52,963

Elevations are in feet above sea level. Discharges are in cubic feet per second and are reported at the end of the hour.